When you browse on this site, cookies collect data to enhance your experience and personalize the content and advertising you see.
Visit our Privacy Policy to learn more. By continuing to use the site, you agree to this use of cookies and data.
  • In Sweden
  • List of Countries
  • For 7 days
  • Water Temperature
  • Satellite Maps
  • Weather Map
  • Weather Widgets
  • user-avatar
    Login

    Hourly Weather Pontypool

    Today, 19 January, Saturday

    Time Temperature Precipitation Wind Pressure Humidity
    00:00 +5°C° 0.2 mm 5 mps 740 mmHg 95%
    01:00 +5°C° 0.1 mm 5 mps 740 mmHg 95%
    02:00 +3°C° 0.1 mm 5 mps 739 mmHg 95%
    03:00 +4°C° 0.1 mm 4 mps 739 mmHg 95%
    04:00 +4°C° 0.1 mm 4 mps 739 mmHg 96%
    05:00 +4°C° 0.1 mm 4 mps 738 mmHg 96%
    06:00 +4°C° 0.1 mm 4 mps 738 mmHg 96%
    07:00 +4°C° 0.5 mm 4 mps 738 mmHg 96%
    08:00 +4°C° 0.5 mm 4 mps 738 mmHg 96%
    09:00 +4°C° 0.5 mm 4 mps 738 mmHg 96%
    10:00 +5°C° 0.4 mm 3 mps 738 mmHg 95%
    11:00 +5°C° 0.4 mm 3 mps 738 mmHg 94%
    12:00 +7°C° 0.4 mm 3 mps 738 mmHg 94%
    13:00 +7°C° 0.1 mm 2 mps 738 mmHg 93%
    14:00 +7°C° 0.1 mm 2 mps 738 mmHg 91%
    15:00 +8°C° 0.1 mm 2 mps 738 mmHg 90%
    16:00 +7°C° 0.1 mm 2 mps 738 mmHg 92%
    17:00 +6°C° 0.1 mm 2 mps 739 mmHg 94%
    18:00 +5°C° 0.1 mm 2 mps 739 mmHg 96%
    19:00 +5°C° 0 mm 2 mps 739 mmHg 96%
    20:00 +5°C° 0 mm 2 mps 740 mmHg 97%
    21:00 +5°C° 0 mm 2 mps 740 mmHg 97%
    22:00 +5°C° 0 mm 2 mps 740 mmHg 97%
    23:00 +5°C° 0 mm 2 mps 741 mmHg 96%

    Tomorrow, 20 January, Sunday

    Time Temperature Precipitation Wind Pressure Humidity
    00:00 +5°C° 0 mm 2 mps 741 mmHg 96%
    01:00 +5°C° 0 mm 2 mps 742 mmHg 96%
    02:00 +5°C° 0 mm 2 mps 742 mmHg 96%
    03:00 +4°C° 0 mm 2 mps 743 mmHg 96%
    04:00 +4°C° 0.1 mm 2 mps 743 mmHg 96%
    05:00 +4°C° 0.1 mm 2 mps 744 mmHg 96%
    06:00 +3°C° 0.1 mm 3 mps 744 mmHg 95%
    07:00 +3°C° 0 mm 3 mps 745 mmHg 95%
    08:00 +3°C° 0 mm 3 mps 746 mmHg 95%
    09:00 +2°C° 0 mm 3 mps 747 mmHg 95%
    10:00 +3°C° 0 mm 3 mps 747 mmHg 92%
    11:00 +3°C° 0 mm 3 mps 748 mmHg 90%
    12:00 +4°C° 0 mm 3 mps 749 mmHg 87%
    13:00 +4°C° 0 mm 3 mps 749 mmHg 86%
    14:00 +4°C° 0 mm 3 mps 749 mmHg 85%
    15:00 +4°C° 0 mm 4 mps 750 mmHg 84%
    16:00 +3°C° 0 mm 3 mps 750 mmHg 86%
    17:00 +2°C° 0 mm 3 mps 751 mmHg 89%
    18:00 +2°C° 0 mm 2 mps 751 mmHg 91%
    19:00 +2°C° 0 mm 2 mps 752 mmHg 91%
    20:00 +2°C° 0 mm 2 mps 752 mmHg 91%
    21:00 +2°C° 0 mm 2 mps 753 mmHg 91%
    22:00 +2°C° 0 mm 2 mps 753 mmHg 91%
    23:00 +3°C° 0 mm 1 mps 753 mmHg 92%

    Day after tomorrow, 21 January, Monday

    Time Temperature Precipitation Wind Pressure Humidity
    00:00 +3°C° 0 mm 1 mps 754 mmHg 92%
    01:00 +4°C° 0 mm 1 mps 754 mmHg 92%
    02:00 +4°C° 0 mm 1 mps 754 mmHg 92%
    03:00 +4°C° 0 mm 1 mps 754 mmHg 92%
    04:00 +4°C° 0 mm 1 mps 754 mmHg 92%
    05:00 +4°C° 0 mm 1 mps 754 mmHg 92%
    06:00 +3°C° 0 mm 1 mps 754 mmHg 92%
    07:00 +3°C° 0 mm 1 mps 754 mmHg 91%
    08:00 +2°C° 0 mm 0 mps 754 mmHg 89%
    09:00 +2°C° 0 mm 0 mps 754 mmHg 88%
    10:00 +4°C° 0 mm 1 mps 753 mmHg 86%
    11:00 +4°C° 0 mm 2 mps 752 mmHg 83%
    12:00 +4°C° 0 mm 3 mps 752 mmHg 80%
    13:00 +4°C° 0 mm 4 mps 751 mmHg 79%
    14:00 +3°C° 0 mm 5 mps 750 mmHg 78%
    15:00 +3°C° 0 mm 6 mps 749 mmHg 77%
    16:00 +3°C° 0 mm 6 mps 748 mmHg 79%
    17:00 +3°C° 0 mm 7 mps 747 mmHg 80%
    18:00 +2°C° 0 mm 8 mps 745 mmHg 81%
    19:00 +2°C° 0.3 mm 8 mps 744 mmHg 83%
    20:00 +2°C° 0.3 mm 9 mps 743 mmHg 84%
    21:00 +3°C° 0.3 mm 10 mps 741 mmHg 86%
    22:00 +2°C° 2 mm 9 mps 741 mmHg 85%
    23:00 +1°C° 2 mm 8 mps 740 mmHg 83%

    22 January, Tuesday

    Time Temperature Precipitation Wind Pressure Humidity
    00:00 0°C° 2 mm 7 mps 739 mmHg 82%
    01:00 -1°C° 0 mm 7 mps 739 mmHg 82%
    02:00 -2°C° 0 mm 6 mps 738 mmHg 81%
    03:00 -1°C° 0 mm 5 mps 738 mmHg 81%
    04:00 -2°C° 0 mm 6 mps 738 mmHg 81%
    05:00 -2°C° 0 mm 6 mps 738 mmHg 81%
    06:00 -2°C° 0 mm 6 mps 737 mmHg 81%
    07:00 -2°C° 0 mm 6 mps 737 mmHg 81%
    08:00 -2°C° 0 mm 6 mps 737 mmHg 80%
    09:00 -1°C° 0 mm 5 mps 737 mmHg 80%
    10:00 -2°C° 0 mm 6 mps 736 mmHg 76%
    11:00 -1°C° 0 mm 7 mps 736 mmHg 72%
    12:00 0°C° 0 mm 8 mps 736 mmHg 67%
    13:00 -1°C° 0.1 mm 8 mps 736 mmHg 67%
    14:00 -1°C° 0.1 mm 8 mps 736 mmHg 67%
    15:00 -1°C° 0.1 mm 7 mps 735 mmHg 67%
    16:00 -2°C° 0 mm 7 mps 735 mmHg 70%
    17:00 -3°C° 0 mm 6 mps 736 mmHg 73%
    18:00 -4°C° 0 mm 6 mps 736 mmHg 75%
    19:00 -3°C° 0 mm 6 mps 736 mmHg 75%
    20:00 -3°C° 0 mm 6 mps 736 mmHg 76%
    21:00 -3°C° 0 mm 6 mps 736 mmHg 76%
    22:00 -3°C° 0 mm 6 mps 736 mmHg 76%
    23:00 -2°C° 0 mm 5 mps 736 mmHg 77%

    23 January, Wednesday

    Time Temperature Precipitation Wind Pressure Humidity
    00:00 -2°C° 0 mm 5 mps 735 mmHg 77%
    01:00 -2°C° 0 mm 5 mps 735 mmHg 78%
    02:00 -4°C° 0 mm 5 mps 735 mmHg 78%
    03:00 -4°C° 0 mm 5 mps 735 mmHg 79%
    04:00 -4°C° 0 mm 5 mps 735 mmHg 79%
    05:00 -4°C° 0 mm 5 mps 735 mmHg 79%
    06:00 -4°C° 0 mm 5 mps 735 mmHg 80%
    07:00 -2°C° 0 mm 5 mps 735 mmHg 79%
    08:00 -2°C° 0 mm 5 mps 735 mmHg 79%
    09:00 -2°C° 0 mm 5 mps 736 mmHg 79%
    10:00 -1°C° 0 mm 5 mps 736 mmHg 74%
    11:00 -1°C° 0 mm 6 mps 736 mmHg 69%
    12:00 +1°C° 0 mm 6 mps 737 mmHg 64%
    13:00 +1°C° 0 mm 6 mps 737 mmHg 65%
    14:00 +1°C° 0 mm 6 mps 737 mmHg 65%
    15:00 +1°C° 0 mm 5 mps 737 mmHg 66%
    16:00 0°C° 0 mm 5 mps 738 mmHg 70%
    17:00 -1°C° 0 mm 5 mps 738 mmHg 75%
    18:00 -2°C° 0 mm 4 mps 738 mmHg 79%
    19:00 -1°C° 0 mm 5 mps 739 mmHg 79%
    20:00 -1°C° 0 mm 5 mps 739 mmHg 78%
    21:00 -2°C° 0 mm 6 mps 739 mmHg 78%
    22:00 -2°C° 0 mm 6 mps 739 mmHg 79%
    23:00 -2°C° 0 mm 6 mps 739 mmHg 81%

    24 January, Thursday

    Time Temperature Precipitation Wind Pressure Humidity
    00:00 -2°C° 0 mm 6 mps 739 mmHg 82%
    01:00 -2°C° 0 mm 7 mps 739 mmHg 80%
    02:00 -1°C° 0 mm 9 mps 739 mmHg 78%
    03:00 -2°C° 0 mm 10 mps 739 mmHg 76%
    04:00 -1°C° 0 mm 9 mps 740 mmHg 79%
    05:00 -1°C° 0 mm 9 mps 740 mmHg 83%
    06:00 -1°C° 0 mm 8 mps 741 mmHg 87%
    07:00 -2°C° 0 mm 7 mps 742 mmHg 87%
    08:00 -3°C° 0 mm 7 mps 744 mmHg 88%
    09:00 -3°C° 0 mm 6 mps 745 mmHg 89%
    10:00 -2°C° 0 mm 6 mps 745 mmHg 84%
    11:00 0°C° 0 mm 5 mps 746 mmHg 80%
    12:00 +1°C° 0 mm 5 mps 746 mmHg 76%
    13:00 +1°C° 0 mm 5 mps 747 mmHg 75%
    14:00 +2°C° 0 mm 5 mps 747 mmHg 75%
    15:00 +2°C° 0 mm 5 mps 747 mmHg 75%
    16:00 +1°C° 0 mm 5 mps 747 mmHg 80%
    17:00 -1°C° 0 mm 4 mps 747 mmHg 85%
    18:00 -2°C° 0 mm 4 mps 747 mmHg 90%
    19:00 -2°C° 0 mm 4 mps 747 mmHg 91%
    20:00 -2°C° 0 mm 5 mps 748 mmHg 91%
    21:00 -2°C° 0 mm 5 mps 748 mmHg 92%
    22:00 -2°C° 0 mm 5 mps 748 mmHg 91%
    23:00 -4°C° 0 mm 5 mps 748 mmHg 90%
    Show more